Stündliche Wetter Centralnyy-Kospashskiy

Heute, 27 Januar, Mittwoch

Zeit Temperatur Niederschläge Wind Luftdruck Luftfeuchtigkeit
00:00 -8°C° 0.1 mm 3 m/S 731 mmHg 95%
01:00 -8°C° 0.1 mm 3 m/S 731 mmHg 96%
02:00 -7°C° 0.1 mm 2 m/S 731 mmHg 96%
03:00 -8°C° 0.1 mm 2 m/S 731 mmHg 96%
04:00 -8°C° 0.1 mm 2 m/S 731 mmHg 96%
05:00 -9°C° 0.1 mm 2 m/S 731 mmHg 96%
06:00 -9°C° 0.1 mm 2 m/S 731 mmHg 96%
07:00 -10°C° 0.1 mm 2 m/S 731 mmHg 96%
08:00 -10°C° 0.1 mm 2 m/S 731 mmHg 96%
09:00 -12°C° 0.1 mm 2 m/S 731 mmHg 95%
10:00 -12°C° 0.1 mm 2 m/S 731 mmHg 95%
11:00 -12°C° 0 mm 2 m/S 731 mmHg 94%
12:00 -10°C° 0 mm 2 m/S 731 mmHg 93%
13:00 -10°C° 0 mm 2 m/S 731 mmHg 93%
14:00 -9°C° 0.1 mm 2 m/S 731 mmHg 93%
15:00 -10°C° 0.1 mm 3 m/S 731 mmHg 93%
16:00 -9°C° 0.1 mm 3 m/S 731 mmHg 94%
17:00 -9°C° 0 mm 3 m/S 730 mmHg 94%
18:00 -9°C° 0 mm 4 m/S 730 mmHg 94%
19:00 -8°C° 0 mm 4 m/S 730 mmHg 94%
20:00 -8°C° 0.1 mm 4 m/S 730 mmHg 94%
21:00 -8°C° 0.1 mm 4 m/S 729 mmHg 93%
22:00 -8°C° 0.1 mm 4 m/S 729 mmHg 93%
23:00 -8°C° 0.1 mm 4 m/S 728 mmHg 92%

Morgen, 28 Januar, Donnerstag

Zeit Temperatur Niederschläge Wind Luftdruck Luftfeuchtigkeit
00:00 -8°C° 0.1 mm 4 m/S 728 mmHg 92%
01:00 -8°C° 0.1 mm 4 m/S 728 mmHg 92%
02:00 -9°C° 0.1 mm 4 m/S 727 mmHg 92%
03:00 -10°C° 0.1 mm 5 m/S 727 mmHg 92%
04:00 -10°C° 0.1 mm 5 m/S 727 mmHg 92%
05:00 -10°C° 0.1 mm 5 m/S 726 mmHg 92%
06:00 -10°C° 0.1 mm 5 m/S 726 mmHg 92%
07:00 -11°C° 0.1 mm 5 m/S 726 mmHg 93%
08:00 -10°C° 0.4 mm 5 m/S 726 mmHg 93%
09:00 -10°C° 0.4 mm 5 m/S 726 mmHg 93%
10:00 -10°C° 0.4 mm 5 m/S 726 mmHg 93%
11:00 -8°C° 0.5 mm 5 m/S 725 mmHg 94%
12:00 -8°C° 0.5 mm 5 m/S 725 mmHg 94%
13:00 -8°C° 0.5 mm 5 m/S 725 mmHg 94%
14:00 -8°C° 0.6 mm 5 m/S 725 mmHg 94%
15:00 -8°C° 0.6 mm 5 m/S 726 mmHg 94%
16:00 -8°C° 0.6 mm 5 m/S 726 mmHg 94%
17:00 -8°C° 0.6 mm 4 m/S 726 mmHg 95%
18:00 -8°C° 0.6 mm 4 m/S 727 mmHg 95%
19:00 -8°C° 0.6 mm 4 m/S 727 mmHg 95%
20:00 -7°C° 0.1 mm 3 m/S 727 mmHg 96%
21:00 -7°C° 0.1 mm 2 m/S 727 mmHg 96%
22:00 -7°C° 0.1 mm 2 m/S 727 mmHg 96%
23:00 -7°C° 0.1 mm 2 m/S 728 mmHg 96%

übermorgen, 29 Januar, Freitag

Zeit Temperatur Niederschläge Wind Luftdruck Luftfeuchtigkeit
00:00 -7°C° 0.1 mm 2 m/S 728 mmHg 96%
01:00 -7°C° 0.1 mm 2 m/S 728 mmHg 95%
02:00 -7°C° 0.1 mm 2 m/S 728 mmHg 96%
03:00 -8°C° 0.1 mm 2 m/S 729 mmHg 96%
04:00 -8°C° 0.1 mm 2 m/S 729 mmHg 96%
05:00 -7°C° 0 mm 1 m/S 729 mmHg 96%
06:00 -8°C° 0 mm 1 m/S 729 mmHg 96%
07:00 -8°C° 0 mm 1 m/S 729 mmHg 96%
08:00 -8°C° 0 mm 1 m/S 729 mmHg 96%
09:00 -9°C° 0 mm 1 m/S 728 mmHg 95%
10:00 -9°C° 0 mm 1 m/S 728 mmHg 95%
11:00 -8°C° 0 mm 1 m/S 729 mmHg 94%
12:00 -7°C° 0 mm 1 m/S 729 mmHg 92%
13:00 -6°C° 0 mm 1 m/S 729 mmHg 91%
14:00 -7°C° 0 mm 2 m/S 729 mmHg 91%
15:00 -8°C° 0 mm 2 m/S 728 mmHg 92%
16:00 -8°C° 0 mm 2 m/S 728 mmHg 92%
17:00 -8°C° 0 mm 2 m/S 728 mmHg 91%
18:00 -9°C° 0 mm 3 m/S 728 mmHg 90%
19:00 -11°C° 0 mm 4 m/S 728 mmHg 89%
20:00 -12°C° 0 mm 4 m/S 728 mmHg 88%
21:00 -15°C° 0 mm 4 m/S 728 mmHg 87%
22:00 -16°C° 0 mm 4 m/S 727 mmHg 87%
23:00 -18°C° 0 mm 5 m/S 727 mmHg 87%

30 Januar, Samstag

Zeit Temperatur Niederschläge Wind Luftdruck Luftfeuchtigkeit
00:00 -19°C° 0 mm 5 m/S 727 mmHg 87%
01:00 -20°C° 0 mm 5 m/S 727 mmHg 87%
02:00 -20°C° 0 mm 5 m/S 726 mmHg 87%
03:00 -20°C° 0 mm 5 m/S 726 mmHg 87%
04:00 -21°C° 0 mm 5 m/S 726 mmHg 87%
05:00 -22°C° 0 mm 5 m/S 726 mmHg 87%
06:00 -22°C° 0 mm 5 m/S 726 mmHg 88%
07:00 -24°C° 0 mm 5 m/S 725 mmHg 89%
08:00 -23°C° 0 mm 4 m/S 725 mmHg 90%
09:00 -23°C° 0 mm 4 m/S 725 mmHg 91%
10:00 -24°C° 0 mm 4 m/S 726 mmHg 92%
11:00 -23°C° 0.2 mm 4 m/S 725 mmHg 93%
12:00 -23°C° 0.2 mm 4 m/S 725 mmHg 93%
13:00 -21°C° 0.2 mm 3 m/S 725 mmHg 94%
14:00 -22°C° 0.1 mm 3 m/S 725 mmHg 93%
15:00 -22°C° 0.1 mm 3 m/S 725 mmHg 93%
16:00 -22°C° 0.1 mm 3 m/S 725 mmHg 93%
17:00 -23°C° 0 mm 3 m/S 724 mmHg 93%
18:00 -23°C° 0 mm 3 m/S 724 mmHg 93%
19:00 -23°C° 0 mm 3 m/S 724 mmHg 94%
20:00 -23°C° 0 mm 3 m/S 724 mmHg 94%
21:00 -24°C° 0 mm 4 m/S 723 mmHg 94%
22:00 -24°C° 0 mm 4 m/S 723 mmHg 94%
23:00 -24°C° 0.1 mm 4 m/S 723 mmHg 95%

31 Januar, Sonntag

Zeit Temperatur Niederschläge Wind Luftdruck Luftfeuchtigkeit
00:00 -23°C° 0.1 mm 4 m/S 722 mmHg 95%
01:00 -22°C° 0.1 mm 4 m/S 722 mmHg 95%
02:00 -22°C° 0.3 mm 4 m/S 722 mmHg 95%
03:00 -22°C° 0.3 mm 4 m/S 722 mmHg 94%
04:00 -19°C° 0.3 mm 3 m/S 722 mmHg 94%
05:00 -19°C° 0.1 mm 3 m/S 722 mmHg 94%
06:00 -18°C° 0.1 mm 2 m/S 722 mmHg 95%
07:00 -18°C° 0.1 mm 2 m/S 722 mmHg 95%
08:00 -17°C° 0 mm 2 m/S 723 mmHg 95%
09:00 -16°C° 0 mm 2 m/S 723 mmHg 95%
10:00 -15°C° 0 mm 2 m/S 723 mmHg 95%
11:00 -13°C° 0 mm 2 m/S 723 mmHg 94%
12:00 -13°C° 0 mm 3 m/S 724 mmHg 94%
13:00 -10°C° 0 mm 3 m/S 724 mmHg 94%
14:00 -9°C° 0 mm 3 m/S 724 mmHg 93%
15:00 -9°C° 0 mm 3 m/S 724 mmHg 93%
16:00 -8°C° 0 mm 3 m/S 724 mmHg 92%
17:00 -8°C° 0 mm 3 m/S 724 mmHg 93%
18:00 -7°C° 0 mm 3 m/S 724 mmHg 93%
19:00 -7°C° 0 mm 3 m/S 724 mmHg 93%
20:00 -8°C° 0.3 mm 4 m/S 723 mmHg 93%
21:00 -7°C° 0.3 mm 4 m/S 723 mmHg 94%
22:00 -7°C° 0.3 mm 5 m/S 722 mmHg 94%
23:00 -5°C° 0.4 mm 4 m/S 722 mmHg 94%

1 Februar, Montag

Zeit Temperatur Niederschläge Wind Luftdruck Luftfeuchtigkeit
00:00 -5°C° 0.4 mm 4 m/S 722 mmHg 93%
01:00 -4°C° 0.4 mm 4 m/S 721 mmHg 92%
02:00 -5°C° 0.1 mm 5 m/S 721 mmHg 92%
03:00 -6°C° 0.1 mm 5 m/S 721 mmHg 92%
04:00 -6°C° 0.1 mm 6 m/S 720 mmHg 91%
05:00 -6°C° 0.5 mm 6 m/S 720 mmHg 92%
06:00 -6°C° 0.5 mm 5 m/S 720 mmHg 93%
07:00 -5°C° 0.5 mm 5 m/S 720 mmHg 94%
08:00 -6°C° 0.1 mm 5 m/S 720 mmHg 93%
09:00 -6°C° 0.1 mm 5 m/S 720 mmHg 92%
10:00 -6°C° 0.1 mm 5 m/S 720 mmHg 91%
11:00 -6°C° 0.1 mm 5 m/S 721 mmHg 91%
12:00 -6°C° 0.1 mm 5 m/S 721 mmHg 91%
13:00 -6°C° 0.1 mm 6 m/S 721 mmHg 91%
14:00 -6°C° 0.1 mm 5 m/S 721 mmHg 89%
15:00 -7°C° 0.1 mm 4 m/S 722 mmHg 87%
16:00 -7°C° 0.1 mm 4 m/S 722 mmHg 85%
17:00 -8°C° 0 mm 3 m/S 722 mmHg 87%
18:00 -9°C° 0 mm 3 m/S 722 mmHg 89%
19:00 -9°C° 0 mm 2 m/S 723 mmHg 91%
20:00 -9°C° 0 mm 2 m/S 723 mmHg 92%
21:00 -10°C° 0 mm 2 m/S 723 mmHg 92%
22:00 -10°C° 0 mm 2 m/S 723 mmHg 93%
23:00 -9°C° 0 mm 1 m/S 722 mmHg 94%
Mehr zeigen

Wir brauchen deine Erlaubnis

Meteoprog und unser Service Anbieter werden persönliche Daten aufbewahren, so wie Cookies, Geräte Bezeichnung oder ähnliche Technologien von deinem Gerät und Prozess, so wie Persönliche Daten Inhalte und Werbungen, genauso wie social Media und den Verkehr zu analysieren.

  • Aufbewahrung und/oder Zugang zu deiner Geräte Informationen.

    Cookies, Geräte Bezeichnung oder andere Informationen, können aufbewahrt oder Zugang zu deinem Gerät erhalten, für den Grund, der oben angegeben wird.

  • Personalisierte Werbung und Inhalte, Messungen, Einblick in das Publikum und Produkt Entwicklung.

    Werbungen und Inhalte können personalisiert werden, basierend auf ein Profil. Mehr Daten können besser personalisierte Werbungen und Inhalte hinzufügen. Werbung und Inhalte können gezeigt und gemessen werden. Einblicke über das Publikum, welche die Werbung gesehen haben und den Inhalt, können abgeleitet werden. So wie Daten können genutzt werden, um es zu verbessern oder die Benutzer Erfahrung zu verbessern das System und die Software.

Wenn du “Ich stimme zu” klickst, erlaubst du uns, die Cookies zu benutzen die Geräte Bezeichnung, den Web oder ähnliche Technologien zu benutzen. Deine Settings, können in deinem Gerät bei deinem Browser geändert werden.

Für den bestimmten Zweck, berechtigten Interessen beruhen darauf, mehr als auf den Inhalt. Du kannst mehr darüber in unseren Privaten und Cookie Politik lesen.